Satellite-Ground Cal/Val Region Overpasses Predictions

Prediction of Satellite NPP Overpassing Cal/Val Region: PacNW

Region Location: (Latitude: 10.00, Longitude: 139.50) to (Latitude: 22.70, Longitude: 165.60).

Table of predicted overpasses for the next 14.0 days since TLE Epoch: 8/13/2022
Interval Starting Time Starting Location Ending Time Ending Location
1 08/13/2022 03:24:26 ( 10.05, 148.69) 08/13/2022 03:28:01 ( 22.68, 145.69)
2 08/13/2022 15:56:19 ( 22.68, 145.94) 08/13/2022 15:59:55 ( 10.00, 142.92)
3 08/14/2022 03:05:25 ( 10.04, 153.45) 08/14/2022 03:09:00 ( 22.66, 150.45)
4 08/14/2022 15:37:18 ( 22.70, 150.70) 08/14/2022 15:40:54 ( 10.02, 147.68)
5 08/15/2022 02:46:23 ( 10.02, 158.21) 08/15/2022 02:49:58 ( 22.64, 155.21)
6 08/15/2022 15:18:17 ( 22.66, 155.44) 08/15/2022 15:21:52 ( 10.03, 152.44)
7 08/16/2022 02:27:22 ( 10.01, 162.97) 08/16/2022 02:30:58 ( 22.69, 159.95)
8 08/16/2022 14:59:16 ( 22.67, 160.20) 08/16/2022 15:02:51 ( 10.05, 157.20)
9 08/17/2022 02:10:55 ( 19.09, 165.59) 08/17/2022 02:11:56 ( 22.67, 164.71)
10 08/17/2022 03:49:51 ( 10.05, 142.34) 08/17/2022 03:53:14 ( 21.97, 139.51)
11 08/17/2022 14:40:14 ( 22.69, 164.96) 08/17/2022 14:43:50 ( 10.01, 161.94)
12 08/17/2022 16:21:44 ( 22.68, 139.58) 08/17/2022 16:21:49 ( 22.39, 139.51)
13 08/18/2022 03:30:50 ( 10.04, 147.10) 08/18/2022 03:34:25 ( 22.66, 144.10)
14 08/18/2022 16:02:43 ( 22.70, 144.34) 08/18/2022 16:06:19 ( 10.02, 141.33)
15 08/19/2022 03:11:49 ( 10.02, 151.86) 08/19/2022 03:15:24 ( 22.65, 148.85)
16 08/19/2022 15:43:42 ( 22.65, 149.09) 08/19/2022 15:47:17 ( 10.03, 146.08)
17 08/20/2022 02:52:47 ( 10.01, 156.62) 08/20/2022 02:56:23 ( 22.69, 153.60)
18 08/20/2022 15:24:41 ( 22.66, 153.85) 08/20/2022 15:28:16 ( 10.04, 150.84)
19 08/21/2022 02:33:47 ( 10.06, 161.36) 08/21/2022 02:37:22 ( 22.68, 158.36)
20 08/21/2022 15:05:39 ( 22.68, 158.61) 08/21/2022 15:09:14 ( 10.06, 155.60)
21 08/22/2022 02:15:24 ( 12.34, 165.59) 08/22/2022 02:18:20 ( 22.67, 163.12)
22 08/22/2022 03:56:15 ( 10.05, 140.74) 08/22/2022 03:57:46 ( 15.40, 139.50)
23 08/22/2022 14:46:38 ( 22.69, 163.36) 08/22/2022 14:50:14 ( 10.01, 160.35)
24 08/23/2022 03:37:14 ( 10.04, 145.50) 08/23/2022 03:40:49 ( 22.66, 142.50)
25 08/23/2022 14:30:36 ( 12.14, 165.59) 08/23/2022 14:31:12 ( 10.02, 165.10)
26 08/23/2022 16:09:06 ( 22.70, 142.75) 08/23/2022 16:12:42 ( 10.02, 139.73)
27 08/24/2022 03:18:12 ( 10.03, 150.26) 08/24/2022 03:21:47 ( 22.65, 147.26)
28 08/24/2022 15:50:06 ( 22.65, 147.49) 08/24/2022 15:53:41 ( 10.03, 144.49)
29 08/25/2022 02:59:11 ( 10.02, 155.02) 08/25/2022 03:02:47 ( 22.70, 152.00)
30 08/25/2022 15:31:04 ( 22.66, 152.25) 08/25/2022 15:34:39 ( 10.04, 149.25)
31 08/26/2022 02:40:09 ( 10.01, 159.78) 08/26/2022 02:43:45 ( 22.69, 156.76)
